Fosston, MN

3:08 PM CST on December 06, 2016 (GMT -0600)
Fosston Municipal

Weather History for KFSE - December, 2013

Change the Weather History Date:

Wednesday, December 4, 2013

  Actual Average Record
Temperature  
Mean Temperature 14 °F -  
Max Temperature 19 °F 26 °F 48 °F (1975)
Min Temperature 8 °F 8 °F -25 °F (1991)
Degree Days  
Heating Degree Days 52    
Moisture  
Dew Point 11 °F    
Average Humidity 88    
Maximum Humidity 100    
Minimum Humidity 85    
Precipitation  
Precipitation 0.02 in - - ()
Sea Level Pressure  
Sea Level Pressure 29.72 in    
Wind  
Wind Speed 13 mph (NNE)    
Max Wind Speed 20 mph    
Max Gust Speed 23 mph    
Visibility 3 miles    
Events Snow    
Averages and records for this station are not official NWS values.
T = Trace of Precipitation, MM = Missing Value Source: NWS Daily Summary

Daily Weather History Graph

Daily Weather History Graph

Search for Another Location

Airport or City:

Trip Planner

Search our weather history database for the weather conditions in past years. The results will help you decide how hot, cold, wet, or windy it might be!

Date:

Astronomy

Dec. 04, 2013 Rise Set
Actual Time 7:54 AM CST 4:32 PM CST
Civil Twilight 7:18 AM CST 5:07 PM CST
Nautical Twilight 6:39 AM CST 5:46 PM CST
Astronomical Twilight 6:02 AM CST 6:23 PM CST
Moon 9:20 AM CST (12/4) 6:47 PM CST (12/4)
Length of Visible Light 9h 49m
Length of Day
8h 38m
Waxing Crescent, 4% of the Moon is Illuminated
Dec 4
Waxing Crescent
Dec 9
First Quarter
Dec 17
Full
Dec 25
Last Quarter
Jan 1
New

Hourly Weather History & Observations

Time (CST) Temp. Windchill Dew Point Humidity Pressure Visibility Wind Dir Wind Speed Gust Speed Precip Events Conditions
12:15 AM 19.4 °F 6.6 °F 19.4 °F 100% 29.87 in 7.0 mi ENE 12.7 mph 17.3 mph N/A   Overcast
12:35 AM 19.4 °F 7.9 °F 17.6 °F 93% 29.87 in 10.0 mi ENE 10.4 mph 17.3 mph N/A   Overcast
12:55 AM 19.4 °F 7.9 °F 17.6 °F 93% 29.86 in 10.0 mi ENE 10.4 mph - N/A Snow Light Snow
1:15 AM 19.4 °F 7.9 °F 17.6 °F 93% 29.86 in 10.0 mi ENE 10.4 mph - N/A   Overcast
1:35 AM 19.4 °F 6.0 °F 17.6 °F 93% 29.85 in 10.0 mi ENE 13.8 mph 19.6 mph N/A   Overcast
1:55 AM 19.4 °F 5.5 °F 17.6 °F 93% 29.86 in 10.0 mi ENE 15.0 mph 19.6 mph N/A   Overcast
2:15 AM 19.4 °F 7.2 °F 17.6 °F 93% 29.86 in 10.0 mi ENE 11.5 mph - N/A   Mostly Cloudy
2:35 AM 19.4 °F 7.9 °F 15.8 °F 86% 29.87 in 10.0 mi ENE 10.4 mph - N/A   Overcast
2:55 AM 19.4 °F 7.9 °F 15.8 °F 86% 29.87 in 10.0 mi ENE 10.4 mph 17.3 mph N/A   Overcast
3:15 AM 19.4 °F 7.2 °F 15.8 °F 86% 29.86 in 10.0 mi ENE 11.5 mph - N/A Snow Light Snow
3:35 AM 17.6 °F 5.0 °F 15.8 °F 93% 29.85 in 4.0 mi ENE 11.5 mph 19.6 mph N/A Snow Light Snow
3:55 AM 17.6 °F 5.7 °F 15.8 °F 93% 29.85 in 4.0 mi ENE 10.4 mph 16.1 mph N/A Snow Light Snow
4:15 AM 17.6 °F 4.3 °F 15.8 °F 93% 29.84 in 1.8 mi ENE 12.7 mph 18.4 mph N/A Snow Light Snow
4:35 AM 17.6 °F 5.7 °F 14.0 °F 86% 29.85 in 1.5 mi NE 10.4 mph 16.1 mph N/A Snow Light Snow
4:55 AM 15.8 °F 2.7 °F 12.2 °F 86% 29.86 in 1.8 mi NE 11.5 mph - N/A Snow Light Snow
5:15 AM 15.8 °F 3.4 °F 12.2 °F 86% 29.84 in 1.8 mi NE 10.4 mph 17.3 mph N/A Snow Light Snow
5:35 AM 15.8 °F 1.4 °F 12.2 °F 86% 29.82 in 1.8 mi NE 13.8 mph 17.3 mph N/A Snow Light Snow
5:55 AM 15.8 °F 3.4 °F 12.2 °F 86% 29.83 in 1.5 mi NE 10.4 mph 17.3 mph N/A Snow Light Snow
6:15 AM 15.8 °F 1.4 °F 12.2 °F 86% 29.82 in 2.0 mi ENE 13.8 mph - N/A Snow Light Snow
6:35 AM 14.0 °F -0.2 °F 12.2 °F 93% 29.81 in 3.0 mi NE 12.7 mph 19.6 mph N/A Snow Light Snow
6:55 AM 14.0 °F 1.2 °F 12.2 °F 93% 29.83 in 4.0 mi NE 10.4 mph 18.4 mph N/A Snow Light Snow
7:15 AM 14.0 °F -0.2 °F 10.4 °F 86% 29.82 in 2.5 mi NE 12.7 mph 17.3 mph N/A Snow Light Snow
7:35 AM 14.0 °F -0.8 °F 10.4 °F 86% 29.79 in 2.0 mi NE 13.8 mph 20.7 mph N/A Snow Light Snow
7:55 AM 14.0 °F 0.5 °F 10.4 °F 86% 29.80 in 1.8 mi NE 11.5 mph 18.4 mph N/A Snow Light Snow
8:15 AM 14.0 °F -0.8 °F 10.4 °F 86% 29.79 in 1.2 mi NE 13.8 mph 18.4 mph N/A Snow Light Snow
8:35 AM 14.0 °F -0.2 °F 10.4 °F 86% 29.79 in 1.0 mi NE 12.7 mph 20.7 mph N/A Snow Light Snow
8:55 AM 14.0 °F 1.2 °F 10.4 °F 86% 29.79 in 1.2 mi NE 10.4 mph 17.3 mph N/A Snow Light Snow
9:15 AM 14.0 °F 2.0 °F 10.4 °F 86% 29.80 in 1.0 mi NE 9.2 mph - N/A Snow Light Snow
9:35 AM 14.0 °F 2.0 °F 10.4 °F 86% 29.79 in 0.5 mi NE 9.2 mph - N/A Snow Snow
9:55 AM 14.0 °F -0.2 °F 10.4 °F 86% 29.78 in 0.5 mi NE 12.7 mph - N/A Snow Light Snow
10:16 AM 14.0 °F 0.5 °F 10.4 °F 86% 29.77 in 0.2 mi NE 11.5 mph 19.6 mph N/A Snow Snow
10:35 AM 14.0 °F -0.2 °F 10.4 °F 86% 29.77 in 0.5 mi NE 12.7 mph 16.1 mph N/A Snow Light Snow
10:55 AM 14.0 °F -0.8 °F 10.4 °F 86% 29.74 in 0.2 mi NE 13.8 mph 17.3 mph N/A Snow Snow
11:16 AM 14.0 °F -0.2 °F 10.4 °F 86% 29.75 in 0.8 mi NNE 12.7 mph 18.4 mph N/A Snow Light Snow
11:35 AM 14.0 °F -0.2 °F 10.4 °F 86% 29.73 in 0.8 mi NNE 12.7 mph 17.3 mph N/A Snow Light Snow
11:55 AM 14.0 °F -0.2 °F 10.4 °F 86% 29.73 in 0.8 mi NNE 12.7 mph - N/A Snow Light Snow
12:16 PM 14.0 °F -1.4 °F 10.4 °F 86% 29.69 in 0.5 mi NNE 15.0 mph 18.4 mph N/A Snow Snow
12:35 PM 14.0 °F -0.2 °F 10.4 °F 86% 29.68 in 0.5 mi NNE 12.7 mph 19.6 mph N/A Snow Snow
12:55 PM 15.8 °F 2.1 °F 12.2 °F 86% 29.67 in 0.5 mi NE 12.7 mph 18.4 mph N/A Snow Light Snow
1:16 PM 15.8 °F 5.1 °F 12.2 °F 86% 29.68 in 0.8 mi NE 8.1 mph - N/A Snow Light Snow
1:35 PM 15.8 °F 3.4 °F 12.2 °F 86% 29.66 in 0.8 mi NE 10.4 mph - N/A Snow Light Snow
1:55 PM 15.8 °F 3.4 °F 12.2 °F 86% 29.64 in 0.8 mi NNE 10.4 mph 16.1 mph N/A Snow Light Snow
2:15 PM 15.8 °F 3.4 °F 12.2 °F 86% 29.63 in 0.5 mi NNE 10.4 mph - N/A Snow Snow
2:35 PM 15.8 °F 1.4 °F 12.2 °F 86% 29.63 in 0.5 mi NNE 13.8 mph - N/A Snow Light Snow
2:55 PM 15.8 °F 2.7 °F 12.2 °F 86% 29.62 in 0.8 mi NNE 11.5 mph - N/A Snow Light Snow
3:15 PM 15.8 °F 3.4 °F 12.2 °F 86% 29.63 in 1.0 mi NNE 10.4 mph - 0.01 in Snow Light Snow
3:35 PM 15.8 °F 2.1 °F 12.2 °F 86% 29.63 in 1.0 mi North 12.7 mph - 0.01 in Snow Light Snow
3:56 PM 15.8 °F 1.4 °F 12.2 °F 86% 29.62 in 1.0 mi North 13.8 mph - N/A Snow Light Snow
4:15 PM 15.8 °F 2.7 °F 12.2 °F 86% 29.64 in 0.8 mi NNW 11.5 mph - N/A Snow Light Snow
4:35 PM 14.0 °F 1.2 °F 12.2 °F 93% 29.62 in 1.2 mi NNW 10.4 mph - N/A Snow Snow
4:55 PM 14.0 °F -0.8 °F 10.4 °F 86% 29.63 in 1.5 mi NNW 13.8 mph - 0.01 in Snow Light Snow
5:15 PM 12.2 °F -4.8 °F 10.4 °F 92% 29.62 in 1.2 mi NNW 17.3 mph - N/A Snow Light Snow
5:35 PM 12.2 °F -5.8 °F 10.4 °F 92% 29.62 in 1.5 mi NNW 19.6 mph - N/A Snow Light Snow
5:55 PM 12.2 °F -4.3 °F 8.6 °F 85% 29.60 in 1.8 mi NNW 16.1 mph - N/A Snow Light Snow
6:15 PM 12.2 °F -4.3 °F 8.6 °F 85% 29.61 in 1.8 mi NNW 16.1 mph - N/A Snow Light Snow
6:35 PM 10.4 °F -7.2 °F 8.6 °F 92% 29.60 in 2.0 mi NNW 17.3 mph - N/A Snow Light Snow
6:55 PM 10.4 °F -6.6 °F 8.6 °F 92% 29.61 in 1.5 mi NNW 16.1 mph - N/A Snow Light Snow
7:15 PM 10.4 °F -6.0 °F 8.6 °F 92% 29.62 in 1.5 mi NW 15.0 mph - N/A Snow Light Snow
7:35 PM 10.4 °F -7.2 °F 8.6 °F 92% 29.61 in 1.5 mi NNW 17.3 mph 21.9 mph N/A Snow Light Snow
7:55 PM 10.4 °F -7.2 °F 8.6 °F 92% 29.60 in 1.2 mi NNW 17.3 mph - N/A Snow Light Snow
8:15 PM 10.4 °F -6.6 °F 6.8 °F 85% 29.60 in 1.5 mi NNW 16.1 mph - N/A Snow Light Snow
8:35 PM 10.4 °F -6.0 °F 6.8 °F 85% 29.61 in 1.5 mi NW 15.0 mph - N/A Snow Light Snow
8:55 PM 10.4 °F -7.2 °F 6.8 °F 85% 29.61 in 1.5 mi NW 17.3 mph - N/A Snow Light Snow
9:15 PM 10.4 °F -7.7 °F 6.8 °F 85% 29.61 in 1.5 mi NW 18.4 mph 23.0 mph N/A Snow Light Snow
9:35 PM 8.6 °F -8.9 °F 6.8 °F 92% 29.62 in 2.0 mi NW 16.1 mph 21.9 mph N/A Snow Light Snow
9:55 PM 8.6 °F -8.9 °F 6.8 °F 92% 29.63 in 1.5 mi NW 16.1 mph 20.7 mph N/A Snow Light Snow
10:15 PM 8.6 °F -7.0 °F 6.8 °F 92% 29.63 in 2.0 mi NW 12.7 mph 20.7 mph N/A Snow Light Snow
10:35 PM 8.6 °F -8.3 °F 6.8 °F 92% 29.63 in 1.8 mi NW 15.0 mph 18.4 mph N/A Snow Light Snow
10:55 PM 8.6 °F -8.3 °F 6.8 °F 92% 29.64 in 1.5 mi NW 15.0 mph - N/A Snow Light Snow
11:15 PM 8.6 °F -8.3 °F 5.0 °F 85% 29.64 in 1.8 mi NW 15.0 mph - N/A Snow Light Snow
11:35 PM 8.6 °F -8.9 °F 5.0 °F 85% 29.65 in 1.2 mi WNW 16.1 mph 20.7 mph N/A Snow Light Snow
11:55 PM 8.6 °F -8.9 °F 5.0 °F 85% 29.65 in 1.8 mi WNW 16.1 mph 20.7 mph N/A Snow Light Snow